Location: Coopersdale
(40.3556°N, 78.9372°W)
Time: 21:34:05
(UTC+00:00)

Explorer 11/Cluster Stage 4 - Visible Passes

Search period start: 21 January 2021 00:00
Search period end: 31 January 2021 00:00
Orbit: 467 x 1258 km, 28.8° (Epoch: 21 January)

Date Brightness Start Highest point End Pass type
(mag) Time Alt. Az. Time Alt. Az. Time Alt. Az.
25 Jan 9.1 01:24:23 10° SSW 01:24:56 12° SSW 01:24:56 12° SSW visible
26 Jan 8.8 01:13:23 10° SSW 01:14:42 15° SSW 01:14:42 15° SSW visible
27 Jan 8.5 01:02:25 10° SSW 01:04:26 18° S 01:04:26 18° S visible
28 Jan 8.3 00:51:30 10° SSW 00:54:11 20° S 00:54:11 20° S visible
29 Jan 8.1 00:40:38 10° SW 00:43:54 21° S 00:43:54 21° S visible
30 Jan 8.0 00:29:48 10° SW 00:33:16 20° SSE 00:33:38 20° SSE visible
